Flag for Canada Weather past 2 weeks in Camrose, Alberta, Canada

Now
21 °F

Passing clouds.


Feels Like: 14 °F
Forecast: 22 / 44 °F
Wind: 6 mph from Southwest

Location: Edmonton International

Current Time: Apr 26, 2015 at 2:47:04 AM

Latest Report: Apr 26, 2015 at 2:00 AM


Visibility: 15 mi

Pressure: 30.20 "Hg

Humidity: 93%

Dew point: 19 °F

Location of CamroseLocation

Historic Weather in Camrose — Graph

°F

Camrose temperature yesterday

Maximum temperature yesterday: 39 °F (at 4:00 PM)
Minimum temperature yesterday: 25 °F (at 11:00 PM)
Average temperature yesterday: 33 °F

Past Weeks' High & Low Weather Summary

 TemperatureHumidityPressure
High72 °F (Apr 22, 3:00 PM)100% (Apr 25, 3:54 AM)30.37 "Hg (Apr 25, 3:54 AM)
Low19 °F (Apr 19, 12:00 AM)15% (Apr 15, 6:00 PM)29.31 "Hg (Apr 11, 12:00 PM)
Average42 °F51%29.91 "Hg
* Reported Apr 11 1:00 AM — Apr 26 1:00 AM, Camrose, Weather by CustomWeather, © 2015

Note: Actual official high and low records may vary slightly from our data, if they occured in-between our weather recording intervals... More about our weather records

Advertising

Camrose weather history for previous 24 hours

 ConditionsComfort  
Time TempWeatherWind HumidityBarometerVisibility
1:00 AM
Sun, Apr 26
19 °FClear.6 mph93%30.20 "Hg15 mi
12:00 AM23 °FPassing clouds.7 mph93%30.19 "Hg15 mi
11:00 PM
Sat, Apr 25
25 °FPassing clouds.7 mph86%30.19 "Hg15 mi
10:00 PM27 °FPassing clouds.7 mph86%30.19 "Hg15 mi
9:00 PM28 °FScattered clouds.8 mph80%30.17 "Hg15 mi
8:00 PM36 °FPartly sunny.10 mph65%30.14 "Hg15 mi
7:00 PM37 °FPartly sunny.8 mph65%30.13 "Hg15 mi
6:00 PM37 °FBroken clouds.9 mph70%30.12 "Hg15 mi
5:00 PM39 °FBroken clouds.10 mph65%30.11 "Hg15 mi
4:00 PM39 °FBroken clouds.10 mph56%30.10 "Hg15 mi
3:00 PM36 °FLight snow. More clouds than sun.7 mph75%30.10 "Hg10 mi
2:00 PM34 °FLight snow. More clouds than sun.12 mph81%30.09 "Hg8 mi
1:00 PM34 °FLight snow. Cloudy.10 mph75%30.08 "Hg12 mi
12:00 PM34 °FLight snow. Low clouds.8 mph75%30.06 "Hg8 mi
11:00 AM34 °FLight snow. More clouds than sun.7 mph75%30.06 "Hg8 mi
10:47 AM32 °FLight snow. More clouds than sun.6 mph80%30.06 "Hg8 mi
10:00 AM32 °FLight snow. Mostly cloudy.8 mph80%30.04 "Hg5 mi
9:00 AM32 °FLight snow. Mostly cloudy.10 mph75%30.03 "Hg3 mi
8:00 AM32 °FLight snow. Mostly cloudy.8 mph80%30.01 "Hg10 mi
7:00 AM30 °FLight snow. Ice fog.9 mph93%29.99 "Hg2 mi
6:48 AM30 °FLight snow. Ice fog.14 mph93%29.98 "Hg1 mi
6:00 AM30 °FLight snow. Ice fog.15 mph93%29.97 "Hg1 mi
5:00 AM30 °FLight snow. Ice fog.10 mph93%29.96 "Hg2 mi
4:00 AM30 °FLight snow. Ice fog.12 mph93%29.94 "Hg1 mi
3:54 AM30 °FLight snow. Overcast.9 mph100%29.94 "Hg1 mi
3:00 AM32 °FLight snow. Overcast.14 mph93%29.92 "Hg1 mi
2:00 AM34 °FLight snow. Overcast.10 mph75%29.91 "Hg6 mi
Weather by CustomWeather, © 2015

See weather overviewHow to use our weather pages